CAPE
0 0 0 0 7 0 0 0 26 134 26 150 52 95 174 147 110 222 394 528 518 504 703 650 510 480 427 498 818 1256 1510 1945 1972 1414 1265 1268 902 1022 1270 1622 1541 1508 2459 3197
0 0 0 0 5 10 0 12 107 88 0 70 127 301 167 72 51 44 111 294 352 425 437 597 1075 990 802 697 990 1347 1542 2155 1733 1542 2094 2014 2395 1755 2415 2179 2748 2111 2508 3541
0 0 0 0 7 46 65 63 13 0 0 0 34 283 315 144 54 7 2 17 62 166 532 836 900 975 909 959 1169 1044 1456 1892 1919 1829 1949 2796 2205 2063 1437 1498 1315 1563 2380 3490
0 0 0 1 1 19 51 3 6 0 0 1 0 15 314 239 41 35 16 0 0 67 412 1022 1017 1178 973 1214 1442 1394 1495 1550 1940 2000 1525 2521 1382 1492 1223 2453 2005 2852 2807 2859
0 0 0 3 10 4 0 0 0 0 0 3 1 51 14 260 107 5 0 14 6 24 159 375 550 1096 1092 1067 1401 1834 2567 2440 2210 2140 2028 1674 2624 1589 1681 1552 2128 3593 3816 3898
0 0 2 0 0 0 0 1 0 0 0 0 0 50 126 40 88 9 0 0 55 37 64 417 621 890 915 914 1061 1705 2703 2874 2885 3148 2770 2643 2987 2408 1650 2195 3012 2672 2623 3734
0 0 0 0 6 0 1 12 4 0 0 0 13 46 261 68 0 21 8 2 0 141 140 394 608 738 877 814 939 1468 2459 2765 2980 2744 2896 2788 2672 3008 3382 3169 2426 3422 2612 2294
0 0 0 0 2 0 0 10 20 4 0 1 68 63 58 1 0 0 81 8 0 0 121 218 553 709 877 838 1024 1197 2433 2710 2717 2688 2706 2952 2941 2638 2369 2335 2365 2355 3339 3312
0 0 0 0 0 0 0 7 1 2 8 13 55 59 59 4 0 0 4 101 71 108 77 300 425 764 858 818 979 1102 2562 2847 2870 2697 2702 2827 2935 2801 2436 2905 3854 2975 3956 3198
0 0 0 0 0 0 0 0 0 0 13 88 51 116 35 174 0 0 0 149 229 263 134 241 425 787 979 1016 1131 1286 2305 2708 2985 2840 2890 2999 3138 3306 3267 3549 3954 3978 4193 3902
0 0 0 0 0 0 0 0 0 0 0 12 133 69 125 244 75 0 0 0 467 314 246 324 485 903 974 1105 1163 1337 1788 2946 3115 3336 3627 3664 3806 3957 4096 4052 4181 3988 3474 2931
0 0 0 0 0 0 0 0 0 0 0 1 53 14 7 121 2 42 73 324 76 446 277 420 454 925 1129 1143 1256 1546 1832 2706 3293 3769 4312 4397 4277 4211 4252 4142 3629 3110 2780 2301
0 0 3 1 0 0 0 0 0 0 0 23 21 26 5 12 93 124 102 35 615 531 462 507 964 1065 1374 1622 1778 1819 2407 2886 3576 4474 4502 4434 4269 4018 2652 2532 2731 2329 2149 1834
0 0 0 0 0 0 0 0 0 0 0 5 0 227 20 25 19 81 38 509 608 1464 1657 1464 2457 3750 2670 2517 3894 3661 3068 3353 4185 4090 4248 4284 3457 2411 2180 2240 1891 1647 1758 1292
0 0 0 0 0 0 0 0 0 0 0 0 14 67 35 332 83 144 198 1012 1078 1527 1723 2708 3379 4028 3878 4092 4153 4002 3611 3714 3983 4071 3687 3049 2688 2226 1926 1497 1535 1406 993 568
0 0 0 0 0 0 0 0 0 0 0 1 0 40 114 130 61 13 496 1089 1504 1680 2010 2634 3114 3465 3637 3697 3372 3633 3894 3955 4001 3371 2904 2229 1899 1585 1410 1304 904 745 612 506
0 0 0 0 0 0 0 0 0 0 0 0 0 48 92 93 124 202 1092 1098 1511 1659 2197 2815 2981 3271 3503 3400 3447 3505 3829 3821 3005 2393 2067 1704 1641 1356 979 685 600 544 515 392
0 47 9 0 0 0 0 0 0 0 0 0 0 9 90 234 74 26 418 1414 1822 1897 2197 2894 3208 3350 3568 3346 3622 3801 3542 2578 2003 1677 1829 1653 1068 647 531 478 397 471 270 69
0 39 0 0 0 0 0 0 0 0 7 0 0 22 7 18 1 290 234 409 791 1903 2478 3022 3376 3644 3535 3682 3847 3274 2614 2126 1929 1794 1338 875 579 423 409 254 291 136 144 4
3 48 2 0 0 0 0 0 0 0 0 6 0 2 2 20 3 88 664 278 448 2887 3349 3348 3435 3580 3870 3964 3350 2812 2465 1981 1577 1083 754 512 400 396 214 208 147 42 73 0
39 71 16 3 0 0 0 0 0 0 0 0 0 0 0 44 557 1039 656 521 2487 3463 3474 3467 3519 3623 3912 3189 2772 2451 1959 1526 967 466 261 247 228 165 144 61 46 28 5 5
33 43 22 20 16 0 0 0 0 180 513 5 0 0 122 335 326 362 1659 3649 3726 3560 3449 3687 3605 3503 2645 2345 2225 1896 1470 879 302 160 129 99 73 0 12 3 3 3 12 4
38 0 7 3 0 32 1 127 117 95 188 21 20 0 107 212 59 43 2956 3771 3687 3660 3706 3451 3305 2449 1961 1902 1662 1389 648 195 168 23 8 85 63 1 4 0 0 0 0 0
12 0 4 134 62 38 2 0 12 43 81 4 0 33 0 159 148 2433 3079 3540 3537 3630 3490 3120 2538 1855 1439 1078 1159 425 192 117 73 0 5 1 0 0 0 0 0 0 0 0
3 5 0 7 0 26 0 1 32 0 54 36 67 60 131 565 1317 3177 3444 3666 3502 3419 3073 2802 2061 1498 895 518 82 51 97 3 0 4 0 1 0 0 0 0 0 0 0 0
3 118 12 0 101 255 456 96 0 0 0 1 15 126 304 354 2893 3231 3601 3566 3379 3054 3015 2223 1673 1023 313 28 26 9 7 35 2 0 0 0 0 0 0 0 0 0 0 0
CIN
0 0 0 0 -1 0 -1 -1 -46 -17 -43 -2 -120 -73 -84 -149 -154 -143 -100 -88 -81 -69 -36 -51 -75 -62 -54 -16 -7 -9 -5 -9 -3 -5 -9 -7 -24 -17 -11 -8 -6 -9 -3 -2
0 0 0 0 -9 -9 -18 -73 -7 -3 0 -14 -2 -20 -49 -114 -148 -175 -152 -118 -97 -78 -88 -56 -24 -20 -36 -37 -8 -7 -6 -5 -8 -7 -5 -5 -5 -8 -19 -26 -11 -9 -9 -1
0 0 0 -1 -6 -7 -1 -3 -4 0 0 -1 -2 -3 -15 -50 -93 -166 -97 -210 -174 -117 -80 -72 -64 -51 -61 -58 -46 -69 -32 -5 -5 -6 -7 -4 -11 -18 -37 -37 -43 -45 -38 -12
0 0 0 -1 -4 -2 -1 -33 -8 -1 0 -1 0 -4 -3 -27 -65 -105 -158 0 0 -157 -80 -94 -102 -87 -101 -69 -63 -81 -69 -57 -16 -10 -31 -6 -21 -14 -31 -16 -28 -7 -5 -3
0 0 0 -2 -3 -8 0 0 0 0 0 0 -3 -7 -8 -4 -36 -113 0 -139 -197 -175 -116 -110 -136 -116 -127 -127 -101 -74 -30 -30 -28 -30 -31 -39 -4 -21 -17 -22 -18 -9 -8 -15
0 0 -1 0 -2 0 -2 -9 0 0 0 0 -1 -7 -2 -15 -28 -74 0 0 -132 -155 -149 -97 -120 -145 -153 -148 -152 -121 -48 -33 -20 -7 -24 -20 -3 -17 -36 -13 -10 -14 -23 -28
0 0 0 -1 -2 0 -1 -1 0 0 0 0 -2 -12 -3 -3 0 -44 -90 -39 0 -97 -106 -79 -116 -134 -180 -168 -184 -171 -122 -88 -51 -57 -34 -38 -35 -12 -3 -8 -21 -7 -12 -27
0 0 0 0 -1 0 0 -2 -1 -1 -1 0 -4 -4 -5 -1 0 -1 -23 -41 0 0 -104 -79 -74 -106 -165 -178 -191 -211 -167 -139 -111 -95 -75 -42 -32 -38 -40 -44 -34 -23 -8 -10
0 0 0 0 0 0 0 0 -1 -3 -1 -4 -3 -7 -8 -4 -1 0 -2 -21 -51 -67 -91 -74 -79 -106 -150 -180 -188 -202 -175 -159 -134 -119 -90 -58 -33 -33 -40 -19 -8 -11 -15 -8
0 0 0 0 0 0 0 0 0 0 -6 -5 -10 -4 -18 -4 0 0 0 -3 -17 -43 -46 -70 -85 -116 -118 -134 -176 -188 -168 -189 -138 -117 -87 -53 -24 -4 -8 -8 -2 -5 -5 -2
0 0 0 0 0 0 0 0 0 0 0 -4 0 -16 -8 -25 -45 0 0 0 -10 -27 -31 -51 -57 -91 -116 -116 -136 -175 -177 -161 -135 -90 -34 -12 -2 -1 -1 -1 -2 -1 -2 -1
0 0 0 0 0 0 0 0 0 0 -1 -2 -4 -12 -42 -8 -3 -32 -5 -4 -19 -8 -17 -15 -36 -62 -110 -121 -142 -171 -177 -136 -131 -67 -6 -4 -2 -3 -5 -5 -8 -13 -6 -1
0 0 0 0 0 0 0 0 0 0 0 -5 -10 -10 0 -3 -3 -25 -17 -15 -15 -12 -8 -10 -34 -57 -106 -115 -120 -143 -132 -117 -90 -25 -12 -3 -2 -10 -94 -54 -15 -24 -9 -13
0 0 0 0 0 0 0 0 0 0 0 -2 0 -3 -11 -4 -5 -24 -35 -11 -22 -23 -16 -16 -47 -65 -109 -137 -74 -64 -102 -92 -43 -48 -31 -14 -74 -154 -127 -75 -93 -88 -25 -44
0 0 0 0 0 0 0 0 0 0 0 0 -2 -1 -45 -8 -6 -7 -12 -22 -21 -32 -30 -60 -77 -106 -134 -151 -105 -82 -89 -105 -87 -49 -78 -148 -142 -164 -158 -194 -139 -109 -162 -223
0 0 0 0 0 0 0 0 0 0 0 -4 0 -2 -14 -24 -26 -13 -17 -15 -21 -39 -33 -85 -130 -161 -178 -185 -183 -153 -131 -124 -90 -147 -179 -250 -263 -268 -264 -261 -332 -328 -299 -301
0 0 -1 0 0 0 0 0 0 0 0 0 0 -5 -15 -1 -10 -15 -16 -16 -25 -38 -41 -109 -146 -193 -218 -239 -210 -187 -148 -127 -215 -276 -293 -329 -295 -317 -373 -396 -373 -344 -308 -238
0 -13 -1 0 0 0 0 0 0 0 0 0 0 -6 -5 -6 -3 -9 -15 -25 -28 -40 -51 -107 -148 -191 -205 -223 -179 -144 -159 -275 -343 -371 -291 -293 -395 -490 -475 -422 -422 -373 -353 -396
0 -2 0 0 0 0 0 0 0 0 -1 0 0 -5 -8 -6 -2 -12 -24 -12 -14 -45 -78 -146 -185 -179 -181 -147 -141 -205 -262 -302 -301 -300 -358 -434 -485 -502 -454 -491 -459 -492 -403 -188
-2 -8 -1 0 0 0 0 0 0 0 0 -4 0 -4 -2 -8 -1 -15 -16 -24 -30 -42 -116 -170 -217 -198 -116 -111 -176 -222 -248 -294 -326 -403 -463 -502 -505 -458 -538 -533 -519 -488 -397 0
-1 -1 0 -1 0 0 0 0 0 0 0 0 0 0 0 -98 -22 -6 -16 -26 -42 -115 -167 -208 -217 -185 -126 -175 -210 -234 -286 -329 -419 -558 -614 -587 -573 -594 -586 -610 -553 -505 -2 -1
-2 -1 0 -1 0 0 0 0 0 0 -11 -7 0 0 -39 -48 -40 -19 -23 -83 -143 -177 -205 -193 -183 -168 -253 -256 -232 -253 -293 -405 -595 -667 -663 -666 -661 0 -693 -732 -1 -1 -1 -2
-5 0 -1 0 0 -2 -1 -18 -16 -8 -12 -12 -7 0 -40 -47 -74 -69 -43 -92 -150 -193 -191 -184 -177 -288 -320 -281 -284 -295 -465 -622 -625 -731 -727 -600 -612 -75 -457 0 0 0 0 0
-2 0 -4 -10 -3 -8 -1 0 -9 -19 -7 -9 0 -44 0 -22 -27 -34 -94 -119 -161 -197 -200 -196 -269 -334 -356 -385 -327 -517 -589 -627 -637 0 0 0 0 0 0 0 0 0 0 0
-2 -2 0 -7 0 -10 0 -2 -7 0 -19 -19 -87 -97 -65 -31 -11 -94 -133 -160 -181 -192 -179 -214 -302 -351 -426 -499 -674 -675 -636 -552 0 0 0 0 0 0 0 0 0 0 0 0
-6 -8 -1 0 -27 -22 -10 -20 0 0 0 -5 -19 -56 -45 -39 -46 -103 -139 -182 -178 -157 -117 -251 -313 -413 -581 -741 -684 -210 -704 -606 -131 0 0 0 0 0 0 0 0 0 0 0
Wind_Speed
19 15 16 21 20 27 28 14 26 19 13 5 4 18 19 16 16 17 16 16 14 15 19 20 18 16 15 13 13 11 10 8 4 4 4 5 6 5 4 4 5 4 4 5
19 20 21 20 14 28 9 24 14 15 9 2 14 21 19 17 15 17 18 17 17 17 16 16 20 20 17 15 14 12 11 8 8 5 4 4 2 3 3 4 4 2 5 4
22 22 24 20 16 18 21 13 7 11 9 9 9 19 19 17 14 16 17 17 17 17 19 17 15 16 17 17 15 14 12 11 9 8 6 4 3 4 5 5 6 7 7 6
22 25 23 22 16 15 16 11 6 10 8 6 12 6 15 20 15 17 17 18 17 17 18 18 17 15 15 14 15 15 14 13 11 10 8 7 6 6 7 5 5 2 5 2
24 25 24 22 18 17 12 11 13 7 6 9 16 6 13 19 17 17 18 19 19 18 19 20 20 17 16 15 14 14 14 14 12 12 11 8 7 6 6 5 7 4 2 5
27 26 24 22 13 16 11 8 4 1 9 11 13 8 7 17 16 19 20 20 20 20 19 19 18 17 15 14 14 14 14 13 13 12 14 12 9 8 6 6 4 4 3 5
28 30 26 24 20 19 20 16 6 9 10 11 12 12 9 16 19 18 18 21 20 20 19 19 20 18 17 17 16 14 16 15 14 14 13 13 12 9 6 7 5 5 4 6
21 25 29 23 20 19 20 17 11 10 12 13 6 7 7 16 15 19 20 20 21 21 19 19 21 18 18 18 16 16 17 15 14 14 13 11 11 7 7 7 7 6 4 5
22 27 27 27 17 22 21 19 15 20 17 10 8 7 17 17 17 13 20 21 21 21 20 20 20 19 19 18 18 16 17 16 16 14 11 11 9 10 7 8 7 7 6 5
20 18 25 27 16 23 23 15 18 14 17 14 10 13 10 15 13 12 10 18 21 21 21 20 19 19 18 17 16 16 16 17 15 14 12 10 10 9 9 7 6 6 5 5
29 20 21 23 23 24 17 20 16 19 15 14 5 9 14 16 14 14 16 12 18 21 20 20 19 19 18 18 16 16 15 17 15 13 11 11 10 10 10 8 7 5 3 5
29 16 17 29 25 26 24 23 22 13 18 14 10 11 14 17 15 12 9 7 13 20 18 19 19 20 19 17 17 16 14 14 15 12 9 10 9 9 9 6 6 6 4 1
25 21 14 20 25 25 27 24 24 20 18 16 11 2 18 16 14 12 10 9 8 10 15 15 15 17 18 15 14 15 14 13 13 11 10 7 7 5 11 9 6 6 4 4
25 22 17 16 17 19 24 25 27 25 16 17 16 8 5 12 12 11 5 12 9 7 6 8 9 9 13 12 10 10 12 13 12 12 10 8 10 12 10 8 8 6 4 4
25 22 22 23 20 25 24 26 25 25 21 20 17 15 14 11 10 13 11 14 11 8 8 9 10 9 10 10 10 10 10 13 13 10 10 13 12 11 10 9 7 6 6 5
27 19 21 24 25 21 27 28 27 26 24 23 23 16 19 19 17 11 14 15 11 11 10 11 11 11 11 10 10 11 12 13 12 15 13 13 12 11 10 9 7 6 6 6
21 17 19 20 24 23 21 27 28 25 25 24 20 16 12 8 9 12 14 14 14 12 10 13 12 11 10 12 11 12 13 13 15 14 13 13 12 11 10 9 8 7 6 2
19 18 14 16 18 25 15 18 24 24 23 22 20 19 14 6 6 11 9 16 15 17 15 14 13 12 13 13 14 14 14 14 14 14 13 12 12 11 9 8 7 7 4 5
23 13 12 14 17 17 25 21 16 18 20 23 22 16 15 13 7 9 8 5 3 17 17 16 16 14 13 14 15 16 15 14 15 14 13 12 10 10 9 8 6 5 5 4
22 14 12 14 22 27 16 20 16 14 11 11 13 15 14 10 8 5 7 7 4 14 16 17 18 17 14 14 16 16 15 14 14 14 12 11 10 9 9 8 7 5 6 3
18 16 17 15 14 15 16 21 17 19 7 9 11 6 7 9 3 3 5 8 12 18 19 18 17 16 15 15 15 14 14 14 13 12 11 10 10 9 9 8 7 5 5 5
11 11 13 14 15 18 14 17 25 5 10 8 11 13 10 8 8 5 7 19 19 18 17 17 16 15 15 14 14 14 12 11 11 11 11 11 10 8 8 9 7 5 3 4
15 11 10 12 12 2 11 11 11 8 7 7 7 8 12 12 14 13 13 15 17 18 16 15 15 16 13 13 12 14 12 12 11 11 11 9 9 8 8 8 8 5 1 4
16 18 11 9 10 18 8 9 8 5 10 12 11 11 10 9 13 15 16 15 14 16 16 15 17 16 13 12 13 13 13 12 12 11 10 9 9 9 8 6 6 6 6 5
15 13 14 12 15 12 12 12 9 5 1 4 2 2 7 11 7 20 16 15 14 15 14 16 16 15 14 13 14 14 13 13 12 11 10 9 7 8 10 9 8 6 5 5
13 17 13 10 12 11 9 12 11 7 7 5 5 4 6 9 12 18 16 16 15 15 14 15 16 16 14 14 15 13 13 12 13 11 10 9 9 8 8 8 8 15 9 7
Wind_Direction
220 232 234 242 140 180 237 226 205 221 170 131 325 146 154 177 173 162 165 168 182 173 170 175 183 188 190 209 176 174 183 186 192 180 220 209 229 230 240 242 235 189 246 277
224 223 230 242 180 173 122 250 175 138 160 240 169 151 157 174 185 163 168 168 177 175 168 170 176 179 184 201 180 177 189 195 191 209 218 249 269 262 3 337 5 291 243 287
220 215 233 234 208 212 232 210 117 127 167 243 172 150 153 171 180 158 169 166 174 171 165 169 182 180 182 188 179 185 187 188 202 212 210 237 249 286 292 277 253 236 215 228
218 232 219 236 221 211 244 104 214 134 219 215 200 167 166 163 181 166 168 166 176 168 166 168 179 184 191 185 178 186 189 195 194 204 229 222 222 228 233 251 250 199 168 203
214 228 220 232 224 200 248 193 169 208 261 242 186 194 177 163 181 177 175 171 176 174 173 174 183 184 189 188 186 186 182 192 202 193 214 220 242 241 254 258 272 249 217 223
227 219 233 221 222 236 221 266 52 256 259 250 239 142 189 172 179 178 181 173 173 176 178 172 178 176 189 186 187 179 181 192 195 209 199 223 235 216 246 269 292 255 254 202
216 230 222 233 225 205 233 211 194 222 230 243 228 174 154 183 175 179 176 173 176 169 177 173 174 176 184 190 184 177 176 189 196 203 208 206 224 242 248 248 265 274 291 289
211 217 225 220 223 215 226 231 230 217 227 234 200 165 136 160 167 174 173 176 172 176 176 181 174 179 182 189 185 184 174 184 192 200 211 209 208 222 231 252 258 272 297 308
205 219 220 217 196 231 214 230 246 247 246 269 164 178 158 158 161 168 176 172 173 175 176 178 179 178 179 186 186 186 172 181 188 198 201 207 206 212 222 229 224 235 244 285
225 212 218 216 196 222 240 211 228 247 262 274 234 188 206 166 159 171 195 177 172 171 177 175 181 177 177 182 183 185 176 182 187 192 198 200 201 208 224 248 269 289 303 311
229 212 208 218 200 218 216 236 215 242 241 245 181 257 192 164 176 196 188 195 174 174 179 176 179 172 174 177 182 184 186 176 186 191 195 195 192 202 208 221 227 251 58 68
223 230 222 210 199 211 212 222 231 224 243 265 295 309 155 161 174 179 166 201 190 176 181 176 177 167 173 180 178 180 182 177 180 179 189 183 186 195 205 192 94 84 98 69
210 232 227 221 203 192 218 218 223 229 238 248 248 170 154 164 156 154 164 174 181 181 181 172 166 164 170 174 173 173 171 169 167 164 165 160 170 157 91 98 98 82 61 87
206 226 234 227 215 184 202 221 212 225 220 236 235 155 185 146 133 145 183 151 180 171 163 143 134 137 153 161 147 150 155 151 143 147 149 163 109 107 104 99 81 87 81 57
208 217 230 239 233 197 198 220 217 217 218 228 234 184 202 153 176 163 181 149 165 167 170 129 120 115 122 130 129 125 135 133 131 141 119 108 109 105 102 101 107 87 59 71
204 212 226 230 243 235 204 203 225 214 228 238 238 251 169 174 174 174 170 146 156 167 158 138 131 131 132 133 133 127 125 126 130 123 119 119 113 116 126 133 137 141 135 128
204 211 204 227 237 246 240 204 205 229 214 228 236 248 256 138 155 162 139 154 169 170 171 152 151 147 143 144 140 141 136 122 124 124 129 126 136 140 147 150 141 126 123 103
198 210 192 216 236 241 242 233 207 213 227 238 235 239 248 258 188 180 172 166 173 172 168 157 151 151 150 152 148 140 131 130 128 130 141 145 147 154 149 132 125 127 119 112
187 196 203 208 222 236 240 241 225 235 210 213 241 247 242 255 263 167 169 162 175 186 164 154 148 150 156 157 149 135 139 136 144 150 148 155 153 144 143 127 118 107 123 114
184 187 212 214 223 220 216 234 226 247 252 201 225 229 224 216 223 222 155 140 213 135 139 143 145 146 152 148 140 143 143 147 151 153 153 144 143 141 131 132 130 126 127 109
197 179 202 218 228 232 216 232 227 230 236 218 245 246 231 241 280 271 154 193 140 138 139 138 142 144 137 141 143 144 148 154 150 141 135 131 123 134 135 128 117 111 88 112
208 203 191 216 217 227 241 222 225 216 170 218 215 219 222 229 257 283 102 107 119 126 131 136 137 132 136 139 144 149 150 136 131 130 127 131 141 150 135 117 111 115 139 150
217 237 206 213 220 279 234 262 287 163 154 211 251 276 205 213 214 230 128 128 133 135 138 137 134 135 135 142 146 146 129 130 131 127 137 148 129 120 127 130 140 144 145 89
193 219 237 251 233 242 253 292 298 353 193 192 223 253 263 248 211 134 133 138 142 143 146 146 139 139 136 138 138 125 132 131 131 135 136 129 131 138 142 139 73 63 43 62
174 189 223 248 255 284 246 274 270 238 16 44 22 346 306 298 188 139 142 145 147 146 151 139 143 138 138 131 126 136 137 141 143 141 149 147 142 100 76 57 86 90 52 20
232 179 195 213 228 241 269 241 254 245 205 207 222 244 271 284 129 134 141 143 144 149 145 137 140 136 135 130 136 141 149 159 155 156 166 160 132 127 115 107 91 50 71 44